Buffalo, MN

10:24 AM CDT on August 19, 2017 (GMT -0500)
Buffalo

Weather History for KCFE - October, 2013

Change the Weather History Date:

Saturday, October 26, 2013

  Actual Average (KMIC) Record (KMIC)
Temperature  
Mean Temperature 41 °F -  
Max Temperature 47 °F 51 °F 69 °F (2000)
Min Temperature 33 °F 35 °F 19 °F (1997)
Degree Days  
Heating Degree Days 24    
Moisture  
Dew Point 29 °F    
Average Humidity 61    
Maximum Humidity 82    
Minimum Humidity 50    
Precipitation  
Precipitation 0.00 in - - ()
Sea Level Pressure  
Sea Level Pressure 30.03 in    
Wind  
Wind Speed 11 mph (WNW)    
Max Wind Speed 20 mph    
Max Gust Speed 25 mph    
Visibility 10 miles    
Events      
Averages and records for this station are not official NWS values.
T = Trace of Precipitation, MM = Missing Value Source: NWS Daily Summary

Daily Weather History Graph

Daily Weather History Graph

Search for Another Location

Airport or City:

Trip Planner

Search our weather history database for the weather conditions in past years. The results will help you decide how hot, cold, wet, or windy it might be!

Date:

Astronomy

Oct. 26, 2013 Rise Set
Actual Time 7:46 AM CDT 6:11 PM CDT
Civil Twilight 7:15 AM CDT 6:41 PM CDT
Nautical Twilight 6:41 AM CDT 7:16 PM CDT
Astronomical Twilight 6:07 AM CDT 7:50 PM CDT
Moon No Moon Rise 2:04 PM CDT (10/26)
Length of Visible Light 11h 25m
Length of Day
10h 25m
Waning Gibbous, 53% of the Moon is Illuminated
Oct 26
Waning Gibbous
Oct 26
Last Quarter
Nov 3
New
Nov 9
First Quarter
Nov 17
Full

Hourly Weather History & Observations

Time (CDT) Temp. Windchill Dew Point Humidity Pressure Visibility Wind Dir Wind Speed Gust Speed Precip Events Conditions
12:16 AM 48.7 °F - 37.6 °F 65% 29.82 in 10.0 mi West 10.4 mph - N/A   Clear
12:35 AM 47.8 °F - 36.9 °F 66% 29.82 in 10.0 mi West 11.5 mph - N/A   Clear
12:56 AM 47.8 °F - 33.1 °F 57% 29.83 in 10.0 mi WNW 11.5 mph 20.7 mph N/A   Clear
1:16 AM 46.9 °F - 33.6 °F 60% 29.84 in 10.0 mi WNW 11.5 mph 18.4 mph N/A   Clear
1:35 AM 46.4 °F 41.1 °F 32.0 °F 57% 29.85 in 10.0 mi WNW 11.5 mph - N/A   Clear
1:56 AM 45.5 °F 39.6 °F 31.8 °F 59% 29.86 in 10.0 mi WNW 12.7 mph 20.7 mph N/A   Clear
2:16 AM 45.0 °F 40.1 °F 30.6 °F 57% 29.86 in 10.0 mi WNW 9.2 mph - N/A   Clear
2:35 AM 43.7 °F 37.7 °F 31.6 °F 63% 29.87 in 10.0 mi West 11.5 mph - N/A   Clear
2:56 AM 43.0 °F 36.8 °F 29.1 °F 58% 29.88 in 10.0 mi WNW 11.5 mph 19.6 mph N/A   Clear
3:16 AM 41.9 °F 36.3 °F 27.1 °F 56% 29.88 in 10.0 mi West 9.2 mph - N/A   Clear
3:36 AM 41.9 °F 36.3 °F 26.1 °F 53% 29.89 in 10.0 mi West 9.2 mph 16.1 mph N/A   Clear
3:56 AM 41.0 °F 34.3 °F 26.2 °F 56% 29.90 in 10.0 mi WNW 11.5 mph 21.9 mph N/A   Clear
4:16 AM 40.1 °F 32.4 °F 26.8 °F 59% 29.91 in 10.0 mi WNW 13.8 mph 19.6 mph N/A   Clear
4:36 AM 39.2 °F 29.6 °F 27.3 °F 62% 29.92 in 10.0 mi WNW 19.6 mph 23.0 mph N/A   Clear
4:56 AM 38.3 °F 29.3 °F 27.5 °F 65% 29.94 in 10.0 mi WNW 16.1 mph 25.3 mph N/A   Clear
5:16 AM 37.6 °F 28.8 °F 27.9 °F 68% 29.95 in 10.0 mi WNW 15.0 mph 23.0 mph N/A   Clear
5:36 AM 37.4 °F 28.2 °F 28.0 °F 69% 29.96 in 10.0 mi WNW 16.1 mph 23.0 mph N/A   Clear
5:56 AM 36.9 °F 28.2 °F 28.0 °F 70% 29.97 in 10.0 mi WNW 13.8 mph 20.7 mph N/A   Clear
6:16 AM 36.5 °F 29.2 °F 28.0 °F 71% 29.97 in 10.0 mi WNW 10.4 mph 18.4 mph N/A   Clear
6:36 AM 36.0 °F 28.0 °F 27.9 °F 72% 29.98 in 10.0 mi WNW 11.5 mph 19.6 mph N/A   Clear
6:56 AM 35.8 °F 27.8 °F 27.5 °F 72% 29.99 in 10.0 mi NW 11.5 mph 17.3 mph N/A   Clear
7:16 AM 36.0 °F 28.5 °F 27.5 °F 71% 30.00 in 10.0 mi WNW 10.4 mph 17.3 mph N/A   Clear
7:36 AM 35.8 °F 27.3 °F 27.3 °F 71% 30.01 in 10.0 mi WNW 12.7 mph 21.9 mph N/A   Clear
7:56 AM 35.8 °F 27.3 °F 27.1 °F 71% 30.02 in 10.0 mi WNW 12.7 mph - N/A   Clear
8:16 AM 36.5 °F 27.8 °F 27.3 °F 69% 30.03 in 10.0 mi WNW 13.8 mph - N/A   Clear
8:36 AM 36.7 °F 29.9 °F 27.5 °F 69% 30.04 in 10.0 mi WNW 9.2 mph - N/A   Clear
8:56 AM 37.4 °F 30.8 °F 27.5 °F 67% 30.04 in 10.0 mi WNW 9.2 mph 17.3 mph N/A   Clear
9:16 AM 38.3 °F 30.9 °F 27.5 °F 65% 30.05 in 10.0 mi WNW 11.5 mph 19.6 mph N/A   Clear
9:36 AM 39.2 °F 32.5 °F 27.9 °F 64% 30.06 in 10.0 mi WNW 10.4 mph 20.7 mph N/A   Clear
9:56 AM 39.6 °F 32.1 °F 28.4 °F 64% 30.06 in 10.0 mi NW 12.7 mph 18.4 mph N/A   Clear
10:16 AM 40.5 °F 32.8 °F 28.2 °F 62% 30.06 in 10.0 mi NW 13.8 mph 20.7 mph N/A   Clear
10:36 AM 40.8 °F 33.3 °F 28.2 °F 61% 30.07 in 10.0 mi NW 13.8 mph 20.7 mph N/A   Clear
10:56 AM 41.4 °F 34.0 °F 28.4 °F 60% 30.09 in 10.0 mi NW 13.8 mph 20.7 mph N/A   Clear
11:16 AM 41.9 °F 35.4 °F 28.2 °F 58% 30.09 in 10.0 mi NW 11.5 mph 23.0 mph N/A   Clear
11:36 AM 42.4 °F 36.5 °F 28.9 °F 59% 30.10 in 10.0 mi NW 10.4 mph 17.3 mph N/A   Clear
11:56 AM 43.3 °F 36.8 °F 28.9 °F 57% 30.11 in 10.0 mi NW 12.7 mph 18.4 mph N/A   Clear
12:16 PM 43.3 °F 36.8 °F 28.9 °F 57% 30.11 in 10.0 mi NW 12.7 mph 20.7 mph N/A   Scattered Clouds
12:36 PM 43.5 °F 37.5 °F 28.9 °F 56% 30.11 in 10.0 mi NW 11.5 mph - N/A   Scattered Clouds
12:56 PM 44.6 °F 38.1 °F 28.8 °F 54% 30.11 in 10.0 mi WNW 13.8 mph 20.7 mph N/A   Mostly Cloudy
1:16 PM 45.3 °F 39.7 °F 28.9 °F 53% 30.11 in 10.0 mi WNW 11.5 mph 17.3 mph N/A   Scattered Clouds
1:36 PM 45.0 °F 39.3 °F 28.8 °F 53% 30.11 in 10.0 mi WNW 11.5 mph - N/A   Scattered Clouds
1:56 PM 44.6 °F 39.2 °F 28.6 °F 53% 30.10 in 10.0 mi WNW 10.4 mph 16.1 mph N/A   Scattered Clouds
2:16 PM 45.3 °F 39.3 °F 28.9 °F 53% 30.10 in 10.0 mi West 12.7 mph 17.3 mph N/A   Mostly Cloudy
2:36 PM 46.4 °F 41.5 °F 28.9 °F 51% 30.10 in 10.0 mi West 10.4 mph 16.1 mph N/A   Scattered Clouds
2:56 PM 44.6 °F 40.2 °F 28.2 °F 53% 30.10 in 10.0 mi WNW 8.1 mph 19.6 mph N/A   Scattered Clouds
3:16 PM 45.9 °F 40.8 °F 29.1 °F 52% 30.10 in 10.0 mi WNW 10.4 mph - N/A   Mostly Cloudy
3:36 PM 46.4 °F 40.1 °F 28.6 °F 50% 30.11 in 10.0 mi West 15.0 mph - N/A   Mostly Cloudy
3:56 PM 44.6 °F 38.8 °F 27.5 °F 51% 30.10 in 10.0 mi WNW 11.5 mph 16.1 mph N/A   Scattered Clouds
4:16 PM 45.1 °F 38.4 °F 28.4 °F 52% 30.09 in 10.0 mi West 15.0 mph 18.4 mph N/A   Scattered Clouds
4:36 PM 43.7 °F 37.3 °F 28.2 °F 54% 30.09 in 10.0 mi NW 12.7 mph - N/A   Mostly Cloudy
4:55 PM 43.5 °F 38.9 °F 28.2 °F 55% 30.09 in 10.0 mi NW 8.1 mph - N/A   Mostly Cloudy
5:16 PM 42.6 °F 36.3 °F 28.2 °F 57% 30.11 in 10.0 mi NW 11.5 mph 18.4 mph N/A   Overcast
5:36 PM 41.5 °F 35.9 °F 28.0 °F 59% 30.11 in 10.0 mi NW 9.2 mph - N/A   Overcast
5:55 PM 41.4 °F 35.2 °F 27.9 °F 59% 30.11 in 10.0 mi NW 10.4 mph - N/A   Overcast
6:16 PM 41.0 °F 36.4 °F 27.3 °F 58% 30.11 in 10.0 mi WNW 6.9 mph - N/A   Overcast
6:36 PM 41.0 °F 37.1 °F 27.3 °F 58% 30.11 in 10.0 mi WNW 5.8 mph - N/A   Overcast
6:55 PM 41.0 °F 37.1 °F 26.4 °F 56% 30.10 in 10.0 mi NW 5.8 mph - N/A   Overcast
7:16 PM 40.6 °F 37.5 °F 26.6 °F 57% 30.11 in 10.0 mi WNW 4.6 mph - N/A   Overcast
7:36 PM 40.6 °F 36.7 °F 26.8 °F 58% 30.11 in 10.0 mi NW 5.8 mph - N/A   Overcast
7:55 PM 40.3 °F 37.1 °F 27.3 °F 60% 30.11 in 10.0 mi NW 4.6 mph - N/A   Overcast
8:16 PM 40.1 °F - 27.3 °F 60% 30.11 in 10.0 mi Calm Calm - N/A   Overcast
8:36 PM 40.1 °F - 27.7 °F 61% 30.09 in 10.0 mi Calm Calm - N/A   Overcast
8:55 PM 39.7 °F - 28.4 °F 64% 30.09 in 10.0 mi Calm Calm - N/A   Overcast
9:16 PM 39.2 °F - 29.3 °F 68% 30.07 in 10.0 mi Calm Calm - N/A   Overcast
9:36 PM 39.6 °F 36.3 °F 28.6 °F 65% 30.08 in 10.0 mi West 4.6 mph - N/A   Overcast
9:55 PM 39.7 °F 37.6 °F 28.8 °F 65% 30.09 in 10.0 mi West 3.5 mph - N/A   Overcast
10:16 PM 39.2 °F - 28.4 °F 65% 30.07 in 10.0 mi Calm Calm - N/A   Overcast
10:36 PM 37.9 °F - 28.0 °F 68% 30.05 in 10.0 mi Calm Calm - N/A   Mostly Cloudy
10:55 PM 36.5 °F 33.9 °F 28.2 °F 72% 30.06 in 10.0 mi West 3.5 mph - N/A   Clear
11:16 PM 35.6 °F - 27.7 °F 73% 30.05 in 10.0 mi Calm Calm - N/A   Clear
11:36 PM 34.5 °F - 28.0 °F 77% 30.04 in 10.0 mi Calm Calm - N/A   Clear
11:56 PM 33.3 °F - 28.2 °F 82% 30.04 in 10.0 mi Calm Calm - N/A   Clear